RH
7 7 6 5 5 5 5 4 5 4 4 4 4 4 5 6 8 9 10 11 13 17 21 29 37 49 48 54 62 67 64 58 59 60 47 41 45 52 55 55 57 56 52 50 50
8 7 7 7 6 6 5 5 5 5 5 4 4 4 4 4 5 7 10 10 11 14 23 27 35 43 48 49 58 71 62 55 52 48 50 42 44 40 49 55 54 57 52 51 51
11 10 8 7 6 6 5 5 4 4 4 4 4 4 4 4 5 7 9 11 10 13 22 26 29 36 41 47 54 65 63 52 50 46 44 48 42 38 46 46 50 53 52 53 51
11 11 10 9 7 7 6 5 4 4 4 4 4 4 4 5 5 8 9 10 12 15 22 23 29 35 41 44 49 57 58 54 51 45 49 47 44 37 44 42 45 46 49 53 52
16 13 11 10 9 7 6 5 5 4 4 3 3 4 4 6 5 4 8 9 12 16 20 21 28 31 41 43 45 50 56 54 51 46 46 46 47 42 43 37 40 43 47 52 55
19 17 15 12 10 8 7 6 5 5 4 4 3 4 5 6 4 4 4 10 15 15 18 22 23 28 33 41 39 44 48 48 49 45 43 46 45 44 44 39 37 41 44 50 53
22 20 18 14 12 10 8 6 5 5 5 4 4 4 5 5 4 4 5 11 14 19 16 20 20 25 26 33 36 40 43 44 43 43 40 39 43 42 43 45 38 38 43 47 51
25 24 20 18 15 12 8 6 6 5 5 5 5 4 5 3 4 4 5 8 12 20 16 15 18 20 26 26 32 38 37 38 41 40 38 36 40 40 43 46 43 36 40 44 48
26 26 24 20 16 12 9 8 6 7 6 7 7 6 6 4 6 7 6 6 9 16 18 14 15 17 22 26 27 38 39 39 39 39 43 37 50 41 43 45 46 39 35 41 45
26 27 25 20 16 13 10 8 6 6 6 6 6 9 5 8 6 6 6 6 8 13 18 18 14 16 19 23 26 31 39 40 38 42 45 42 46 44 46 46 45 44 35 38 40
21 20 19 19 17 13 9 8 9 9 9 7 7 7 6 5 6 5 6 6 8 16 15 18 18 16 16 20 28 25 36 42 41 46 47 51 50 49 50 53 48 46 40 33 39
17 17 16 16 16 12 10 10 9 9 10 10 9 8 6 5 5 5 6 8 11 16 20 21 19 15 16 16 22 24 33 42 42 43 47 55 57 52 50 53 52 45 39 29 35
20 18 16 14 16 16 14 12 9 8 10 11 11 10 9 7 6 6 7 7 10 16 21 20 20 20 17 16 18 20 30 38 41 48 45 54 58 53 50 49 50 49 45 36 27
20 19 17 16 17 18 20 14 11 9 9 14 13 12 12 9 8 6 7 8 11 16 19 19 25 23 21 15 16 20 24 32 35 44 47 43 46 48 47 46 48 47 46 40 32
18 19 18 18 18 21 20 18 14 11 11 17 16 14 15 12 11 8 9 9 11 11 19 18 20 24 22 16 16 18 23 29 32 35 45 51 44 51 43 42 42 43 46 44 38
17 19 20 20 19 21 21 21 19 17 18 18 17 16 16 15 14 12 8 9 11 14 16 18 19 20 24 20 19 20 27 30 33 34 41 44 43 41 45 36 35 38 46 47 38
17 18 22 23 24 22 23 24 23 21 20 20 19 18 18 18 17 16 14 12 10 12 15 15 20 19 22 23 19 22 24 29 34 38 37 39 38 41 48 35 38 39 37 43 44
21 20 25 26 26 24 28 28 28 25 22 20 19 19 20 20 20 20 19 18 16 12 13 17 18 18 20 23 20 21 21 22 30 33 37 41 35 33 35 34 38 37 41 42 41
25 25 26 27 28 26 27 30 31 26 23 22 21 22 22 21 22 22 23 21 19 18 14 14 17 19 19 23 23 20 22 21 26 30 35 39 34 34 32 34 37 35 37 39 39
25 28 31 28 29 28 30 31 29 26 24 24 25 23 25 24 23 25 24 23 22 21 21 21 17 18 19 22 23 23 19 23 27 33 37 37 39 34 34 32 33 34 35 36 32
27 29 32 31 31 30 31 31 30 28 27 26 26 26 26 25 27 28 27 25 23 23 25 23 16 17 20 20 24 22 19 18 20 22 29 35 36 35 35 35 36 34 34 36 33
29 32 31 31 36 33 30 31 29 28 28 28 27 27 28 27 28 30 30 29 26 24 27 28 25 26 21 20 23 27 19 19 17 21 21 28 32 32 32 34 35 34 35 36 31
33 33 33 32 36 34 32 30 31 30 30 29 29 29 29 30 33 29 31 31 28 27 33 31 27 20 27 23 21 26 25 21 18 16 24 24 31 30 31 36 34 34 32 36 36
34 34 31 29 31 32 32 32 34 32 32 32 33 33 33 33 33 35 32 33 33 32 29 32 28 27 25 28 27 28 27 26 21 19 18 19 23 27 29 36 38 34 35 35 41
34 32 31 33 35 32 34 37 38 40 38 39 39 39 39 39 38 37 36 33 34 33 31 30 33 29 27 27 27 26 27 27 24 21 18 17 20 24 29 34 39 40 38 39 43
35 35 33 35 33 35 37 45 45 48 50 52 51 49 49 49 45 43 39 38 36 35 35 31 32 32 30 25 24 27 26 28 27 22 21 21 23 22 29 34 36 45 40 44 47
36 33 34 32 33 36 39 44 44 45 50 56 60 59 57 61 56 51 43 40 38 37 36 35 34 34 30 30 25 25 26 28 29 28 23 21 23 28 27 27 39 44 46 50 53